Regional Weather Roundup
Issued by NWS Upton, NY

Current Version | Previous Version | Text Only | Print | Product List | Glossary Off
Versions: 1 2 3 4 5 6 7 8 9 10 11 12 13 14 15 16 17 18 19 20 21 22 23 24 25 26 27 28 29 30 31 32 33 34 35 36 37 38 39 40 41 42 43 44 45 46 47 48 49
000 ASUS41 KOKX 040904 RWROKX REGIONAL WEATHER ROUNDUP NATIONAL WEATHER SERVICE NEW YORK NY 500 AM EDT FRI SEP 04 2015 NOTE: "FAIR" INDICATES FEW OR NO CLOUDS BELOW 12,000 FEET WITH NO SIGNIFICANT WEATHER AND/OR OBSTRUCTIONS TO VISIBILITY. NYZ071-072-176-178-NJZ106-104-041000- NEW YORK CITY METRO AREA CITY SKY/WX TMP DP RH WIND PRES REMARKS CENTRAL PARK CLEAR 77 66 68 VRB5 29.96R LAGUARDIA APRT PTCLDY 77 66 68 NE5 29.92S KENNEDY INTL PTCLDY 76 68 76 NE6 29.93S NEWARK/LIBERTY MOCLDY 76 67 73 N12 29.93R BRNX BOT. GARD N/A 73 66 78 N1 29.96R TETERBORO CLEAR 76 66 71 CALM 29.92S $$ NYZ177-179-078>081-041000- LONG ISLAND NEW YORK CITY SKY/WX TMP DP RH WIND PRES REMARKS FARMINGDALE CLEAR 73 68 84 N7 29.93R ISLIP CLEAR 73 69 87 NE6 29.91S SHIRLEY PTCLDY 71 70 96 CALM 29.93S FOG WESTHAMPTON FOG 67 65 93 CALM 29.95R VSB 3/4 MONTAUK POINT N/A 71 70 96 NE6 29.95R $$ NYZ052-065-067-041000- HUDSON VALLEY CITY SKY/WX TMP DP RH WIND PRES REMARKS WHITE PLAINS CLEAR 73 66 78 N7 29.94S NEWBURGH NOT AVBL MONTGOMERY CLEAR 67 65 93 CALM 29.98R POUGHKEEPSIE CLEAR 68 65 90 CALM 29.97R ALBANY PTCLDY 67 56 67 N8 30.01R $$ NJZ001-105-106-008-010-013-015-019>022-104-041000- NEW JERSEY CITY SKY/WX TMP DP RH WIND PRES REMARKS NEWARK/LIBERTY MOCLDY 76 67 73 N12 29.93R TETERBORO CLEAR 76 66 71 CALM 29.92S CALDWELL CLEAR 73 66 78 CALM 29.95R MORRISTOWN CLEAR 64 61 88 CALM 29.95R FOG SOMERVILLE CLEAR 69 66 90 CALM 29.92S FOG SUSSEX CLEAR 67 64 90 N5 29.98R ANDOVER N/A 68 66 93 CALM 29.98R TRENTON CLEAR 73 67 81 N5 29.92S MILLVILLE PTCLDY 71 69 93 E3 29.91S FOG ATLANTIC CITY PTCLDY 69 67 93 CALM 29.92R FOG WRIGHTSTOWN CLEAR 68 67 99 E2 29.90S FOG TOMS RIVER PTCLDY 63 59 88 CALM 29.93S BELMAR CLEAR 72 63 73 CALM 29.92S $$ PAZ047>061-062-071-041000- EASTERN PENNSYLVANIA CITY SKY/WX TMP DP RH WIND PRES REMARKS PHILADELPHIA MOCLDY 76 68 76 CALM 29.92R ALLENTOWN CLEAR 72 66 81 NE5 29.96R SCRANTON CLEAR 68 64 87 E5 30.00R $$ CTZ002-004>006-009-010-012-RIZ004-006-007-MAZ004-011-015-041000- SOUTHERN NEW ENGLAND IN CT CITY SKY/WX TMP DP RH WIND PRES REMARKS BRADLEY INTL MOCLDY 71 65 81 N7 29.97R HARTFORD MOCLDY 73 68 84 N6 29.96R DANBURY CLEAR 66 62 87 CALM 29.98R FOG WTRBRY/OXFORD MOCLDY 72 63 73 NE10 29.99R BRIDGEPORT CLEAR 75 68 78 NE7 29.94R MERIDEN PTCLDY 74 65 73 N7 29.96R NEW HAVEN PTCLDY 73 67 81 N12 29.94R CHESTER NOT AVBL GROTON MOCLDY 71 70 96 N5 29.94R WILLIMANTIC CLOUDY 71 66 84 N5 29.97R IN RI CITY SKY/WX TMP DP RH WIND PRES REMARKS PROVIDENCE CLOUDY 73 67 81 NE8 29.98R BLOCK ISLAND CLOUDY 70 70 100 NE8 29.95R VSB 1/4 WESTERLY MOCLDY 71 68 90 NE5 29.96R FOG IN MA CITY SKY/WX TMP DP RH WIND PRES REMARKS BOSTON MOCLDY 67 59 75 NE22G30 30.01R WORCESTER CLOUDY 69 65 86 NE8 30.03R WESTFIELD PTCLDY 69 63 81 N7 29.99R PROVINCETOWN N/A 68 64 88 NE8 29.98S NANTUCKET N/A N/A N/A N/A MISG N/A $$ ANZ330-335-338-340-345-350-353-355-041000- COASTAL MARINE OBSERVATIONS STATION/POSITION TIME SKY/WX TEMP WIND PRES VSBY WAVE AIR SEA DIR/SP/G HT/PER (UTC) (F) (DEG/KT/KT) (MB) (MI) (FT/S) NY HARB ENTRANCE 0750 77 77 330/ 4/ 4 1012.5 1/11 4S FIRE IS NOT AVBL 20S FIRE ISLAND 0750 76 76 360/ 6/ 6 1012.5 1/10 GREAT SOUTH BAY 0830 75 80 30/ 8/ 10 N/A 23SW MTP 0850 72 74 60/ 6/ 10 1013.0 1/ 9 HUDSON CANYON NOT AVBL KINGS POINT 0800 75 75 30/ 3/ 5 1012.6 EXECUTION ROCKS 0800 76 360/ 10/ 12 N/A CENTRAL LI SOUND NOT AVBL EASTERN LI SOUND 0800 71 71 70/ 4/ 6 N/A ROBBINS REEF 0800 78 360/ 8/ 9 1012.0 $$ >>>>>>>>>>>>>>>>>>>>>>>>>>>> KEY <<<<<<<<<<<<<<<<<<<<<<<<<<< > < > SKY/WX - SKY CONDITION/PRESENT WEATHER < > TMP - TEMPERATURE IN FAHRENHEIT < > DP - DEWPOINT IN FAHRENHEIT < > RH - RELATIVE HUMIDITY IN PERCENT < > WIND - DIRECTION AND SPEED IN MPH < > PRES - MEAN SEA LEVEL PRESSURE IN INCHES OF HG < > WCI - WIND CHILL INDEX < > VSB - VISIBILITY IN MILES < > HX - HEAT INDEX < > TC - TEMPERATURE IN CELSIUS < > VRB - VARIABLE WIND DIRECTION < > < >>>>>>>>>>>>>>>>>>>>>>>>>>>> KEY <<<<<<<<<<<<<<<<<<<<<<<<<<<

USA.gov is the U.S. government's official web portal to all federal, state and local government web resources and services.